Radiation Dose at Monitoring Post of Fukushima Daini Nuclear Power Station
Date,Time,MP-1(microSv/h),MP-2(microSv/h),MP-3(microSv/h),MP-4(microSv/h),MP-5(microSv/h),MP-6(microSv/h),MP-7(microSv/h),Wind Direction,Wind Velocity(m/s),Rain
2021/04/20,00:00,0.170,0.151,0.248,0.237,0.235,0.134,0.083,southwest,4.6,No
2021/04/20,00:10,0.170,0.152,0.249,0.236,0.234,0.133,0.082,west-southwest,5.9,No
2021/04/20,00:20,0.170,0.152,0.249,0.236,0.236,0.133,0.082,west-southwest,7.0,No
2021/04/20,00:30,0.170,0.152,0.249,0.235,0.235,0.133,0.083,southwest,6.6,No
2021/04/20,00:40,0.170,0.152,0.249,0.236,0.235,0.133,0.082,southwest,4.5,No
2021/04/20,00:50,0.170,0.151,0.248,0.237,0.236,0.133,0.083,south-southwest,3.3,No
2021/04/20,01:00,0.170,0.153,0.249,0.235,0.234,0.133,0.083,south-southwest,4.5,No
2021/04/20,01:10,0.169,0.152,0.249,0.236,0.235,0.133,0.083,south-southwest,4.5,No
2021/04/20,01:20,0.171,0.153,0.248,0.236,0.235,0.134,0.083,south-southwest,4.7,No
2021/04/20,01:30,0.171,0.152,0.248,0.234,0.234,0.133,0.082,south,3.7,No
2021/04/20,01:40,0.170,0.151,0.250,0.235,0.236,0.133,0.083,south,4.8,No
2021/04/20,01:50,0.170,0.153,0.250,0.237,0.235,0.133,0.083,south,5.0,No
2021/04/20,02:00,0.170,0.152,0.248,0.236,0.235,0.133,0.083,south-southwest,5.9,No
2021/04/20,02:10,0.169,0.152,0.249,0.235,0.235,0.133,0.083,south,4.7,No
2021/04/20,02:20,0.170,0.151,0.250,0.237,0.235,0.132,0.083,south-southwest,4.9,No
2021/04/20,02:30,0.169,0.152,0.249,0.236,0.235,0.133,0.082,south,5.9,No
2021/04/20,02:40,0.169,0.152,0.248,0.235,0.235,0.133,0.083,south,6.0,No
2021/04/20,02:50,0.171,0.152,0.248,0.236,0.236,0.133,0.082,south,6.0,No
2021/04/20,03:00,0.170,0.153,0.249,0.236,0.235,0.134,0.083,south,6.6,No
2021/04/20,03:10,0.169,0.153,0.248,0.236,0.235,0.133,0.082,south-southwest,6.7,No
2021/04/20,03:20,0.170,0.152,0.247,0.235,0.235,0.134,0.082,south-southwest,5.7,No
2021/04/20,03:30,0.170,0.152,0.248,0.237,0.233,0.132,0.082,south-southwest,4.6,No
2021/04/20,03:40,0.170,0.152,0.249,0.235,0.235,0.133,0.082,south-southwest,4.3,No
2021/04/20,03:50,0.170,0.152,0.249,0.235,0.235,0.133,0.082,south-southwest,3.3,No
2021/04/20,04:00,0.170,0.153,0.249,0.235,0.235,0.133,0.083,south-southwest,3.5,No
2021/04/20,04:10,0.171,0.152,0.249,0.236,0.235,0.133,0.082,south-southwest,2.8,No
2021/04/20,04:20,0.170,0.152,0.249,0.234,0.233,0.133,0.082,west-southwest,1.5,No
2021/04/20,04:30,0.169,0.152,0.248,0.235,0.235,0.133,0.083,west,2.1,No
2021/04/20,04:40,0.170,0.151,0.249,0.236,0.234,0.133,0.083,west,2.3,No
2021/04/20,04:50,0.171,0.152,0.249,0.234,0.234,0.133,0.083,west-northwest,1.0,No
2021/04/20,05:00,0.169,0.152,0.249,0.236,0.236,0.133,0.083,-,CALM,No
2021/04/20,05:10,0.169,0.151,0.249,0.236,0.234,0.133,0.083,southeast,1.8,No
2021/04/20,05:20,0.169,0.152,0.249,0.235,0.235,0.132,0.082,-,CALM,No
2021/04/20,05:30,0.169,0.152,0.249,0.234,0.234,0.133,0.082,west,3.8,No
2021/04/20,05:40,0.170,0.151,0.249,0.235,0.235,0.133,0.083,west-southwest,5.5,No
2021/04/20,05:50,0.170,0.152,0.248,0.235,0.235,0.133,0.082,west-southwest,5.8,No
2021/04/20,06:00,0.170,0.151,0.247,0.235,0.235,0.133,0.083,west-southwest,5.5,No
2021/04/20,06:10,0.170,0.151,0.248,0.236,0.235,0.133,0.083,west-southwest,5.9,No
2021/04/20,06:20,0.170,0.152,0.247,0.234,0.234,0.132,0.083,west-southwest,6.0,No
2021/04/20,06:30,0.170,0.152,0.248,0.235,0.235,0.133,0.081,southwest,7.3,No
2021/04/20,06:40,0.169,0.151,0.247,0.234,0.234,0.133,0.082,west-southwest,6.9,No
2021/04/20,06:50,0.170,0.150,0.248,0.235,0.235,0.132,0.082,southwest,5.7,No
2021/04/20,07:00,0.171,0.152,0.248,0.235,0.235,0.132,0.082,southwest,5.1,No
2021/04/20,07:10,0.170,0.152,0.247,0.234,0.234,0.133,0.082,southwest,4.7,No
2021/04/20,07:20,0.170,0.151,0.246,0.235,0.233,0.133,0.082,southwest,3.9,No
2021/04/20,07:30,0.169,0.151,0.248,0.234,0.234,0.133,0.082,southwest,3.7,No
2021/04/20,07:40,0.170,0.151,0.245,0.233,0.235,0.133,0.082,southwest,3.3,No
2021/04/20,07:50,0.169,0.151,0.247,0.234,0.235,0.133,0.081,south-southwest,2.9,No
2021/04/20,08:00,0.169,0.151,0.247,0.233,0.235,0.133,0.083,south,2.8,No
2021/04/20,08:10,0.169,0.151,0.246,0.236,0.234,0.133,0.082,south,3.4,No
2021/04/20,08:20,0.169,0.151,0.247,0.233,0.235,0.132,0.083,south-southeast,3.6,No
2021/04/20,08:30,0.170,0.152,0.248,0.234,0.234,0.134,0.082,south-southeast,3.8,No
2021/04/20,08:40,0.168,0.152,0.246,0.236,0.232,0.132,0.082,south-southeast,5.5,No
2021/04/20,08:50,0.169,0.151,0.248,0.233,0.235,0.133,0.082,south-southeast,6.9,No
2021/04/20,09:00,0.169,0.150,0.249,0.234,0.233,0.133,0.082,south-southeast,6.0,No
2021/04/20,09:10,0.168,0.152,0.247,0.236,0.233,0.131,0.083,south-southeast,5.5,No
2021/04/20,09:20,0.171,0.151,0.249,0.234,0.234,0.134,0.082,south,5.8,No
2021/04/20,09:30,0.169,0.152,0.250,0.235,0.232,0.132,0.083,south,5.7,No
2021/04/20,09:40,0.168,0.152,0.247,0.235,0.236,0.133,0.082,south,5.5,No
2021/04/20,09:50,0.170,0.151,0.246,0.234,0.233,0.134,0.082,south,3.6,No
2021/04/20,10:00,0.169,0.152,0.250,0.235,0.232,0.131,0.083,south,3.8,No
2021/04/20,10:10,0.168,0.153,0.249,0.236,0.232,0.132,0.082,south,4.1,No
2021/04/20,10:20,0.168,0.150,0.248,0.234,0.235,0.133,0.081,south,4.5,No
2021/04/20,10:30,0.170,0.150,0.247,0.234,0.236,0.133,0.082,south,5.1,No
2021/04/20,10:40,0.170,0.152,0.246,0.232,0.233,0.132,0.082,south-southeast,1.7,No
2021/04/20,10:50,0.169,0.151,0.245,0.234,0.231,0.133,0.082,south-southeast,3.1,No
2021/04/20,11:00,0.168,0.150,0.250,0.236,0.236,0.132,0.082,southeast,3.0,No
2021/04/20,11:10,0.169,0.151,0.250,0.235,0.235,0.132,0.082,southeast,4.5,No
2021/04/20,11:20,0.171,0.152,0.247,0.234,0.233,0.132,0.082,southeast,4.7,No
2021/04/20,11:30,0.169,0.151,0.247,0.233,0.233,0.133,0.082,south-southeast,5.6,No
2021/04/20,11:40,0.168,0.152,0.248,0.236,0.236,0.132,0.083,south-southeast,5.6,No
2021/04/20,11:50,0.167,0.151,0.251,0.236,0.234,0.132,0.082,south,3.6,No
2021/04/20,12:00,0.170,0.151,0.248,0.234,0.233,0.133,0.082,south-southeast,3.8,No
2021/04/20,12:10,0.170,0.150,0.247,0.232,0.232,0.134,0.081,west,2.8,No
2021/04/20,12:20,0.170,0.153,0.247,0.232,0.232,0.132,0.082,west,3.7,No
2021/04/20,12:30,0.168,0.152,0.246,0.234,0.232,0.133,0.081,west,5.9,No
2021/04/20,12:40,0.167,0.152,0.246,0.236,0.232,0.132,0.081,west,6.0,No
2021/04/20,12:50,0.168,0.151,0.247,0.236,0.234,0.133,0.082,west,10.6,No
2021/04/20,13:00,0.169,0.151,0.248,0.236,0.232,0.133,0.083,west,8.2,No
2021/04/20,13:10,0.170,0.152,0.248,0.235,0.233,0.132,0.081,west,7.7,No
2021/04/20,13:20,0.170,0.149,0.248,0.234,0.234,0.134,0.082,west,8.2,No
2021/04/20,13:30,0.168,0.151,0.248,0.235,0.234,0.134,0.082,west-northwest,10.6,No
2021/04/20,13:40,0.169,0.150,0.248,0.235,0.234,0.133,0.082,west-northwest,11.7,No
2021/04/20,13:50,0.169,0.151,0.251,0.234,0.234,0.133,0.082,west-northwest,8.8,No
2021/04/20,14:00,0.169,0.152,0.253,0.235,0.234,0.133,0.082,west,7.8,No
2021/04/20,14:10,0.170,0.153,0.251,0.233,0.234,0.134,0.082,west,7.1,No
2021/04/20,14:20,0.170,0.153,0.249,0.234,0.235,0.133,0.082,west,8.1,No
2021/04/20,14:30,0.169,0.152,0.248,0.234,0.234,0.134,0.083,west,10.3,No
2021/04/20,14:40,0.168,0.151,0.248,0.235,0.234,0.133,0.083,west-northwest,6.0,No
2021/04/20,14:50,0.168,0.151,0.247,0.234,0.233,0.133,0.082,west-northwest,8.8,No
2021/04/20,15:00,0.171,0.152,0.249,0.234,0.235,0.133,0.082,west,7.7,No
2021/04/20,15:10,0.172,0.152,0.253,0.236,0.234,0.133,0.082,west,6.4,No
2021/04/20,15:20,0.170,0.154,0.252,0.237,0.234,0.133,0.083,west,7.1,No
2021/04/20,15:30,0.170,0.153,0.249,0.237,0.235,0.133,0.084,west-northwest,8.7,No
2021/04/20,15:40,0.169,0.152,0.251,0.234,0.233,0.133,0.083,west-northwest,9.2,No
2021/04/20,15:50,0.169,0.153,0.251,0.238,0.235,0.133,0.083,west,6.9,No
2021/04/20,16:00,0.171,0.153,0.249,0.238,0.234,0.133,0.083,west-northwest,4.4,No
2021/04/20,16:10,0.172,0.153,0.250,0.235,0.234,0.133,0.082,northwest,4.7,No
2021/04/20,16:20,0.169,0.153,0.251,0.238,0.234,0.134,0.082,northwest,2.7,No
2021/04/20,16:30,0.170,0.153,0.251,0.237,0.234,0.134,0.082,west-northwest,2.4,No
2021/04/20,16:40,0.173,0.152,0.252,0.235,0.233,0.133,0.083,northwest,1.7,No
2021/04/20,16:50,0.171,0.154,0.252,0.239,0.233,0.134,0.082,north-northwest,1.5,No
2021/04/20,17:00,0.170,0.153,0.249,0.238,0.233,0.134,0.083,north,1.7,No
2021/04/20,17:10,0.172,0.152,0.252,0.235,0.235,0.133,0.083,west-northwest,1.6,No
2021/04/20,17:20,0.171,0.154,0.252,0.239,0.237,0.132,0.082,west-northwest,2.0,No
2021/04/20,17:30,0.170,0.152,0.250,0.236,0.236,0.135,0.082,northwest,0.8,No
2021/04/20,17:40,0.172,0.154,0.251,0.238,0.235,0.133,0.082,west,2.2,No
2021/04/20,17:50,0.170,0.152,0.249,0.237,0.237,0.134,0.082,west,3.4,No
2021/04/20,18:00,0.171,0.152,0.252,0.237,0.236,0.133,0.082,west-southwest,3.3,No
2021/04/20,18:10,0.171,0.153,0.249,0.237,0.237,0.133,0.082,west-southwest,2.8,No
2021/04/20,18:20,0.171,0.153,0.253,0.236,0.237,0.133,0.082,west-southwest,2.1,No
2021/04/20,18:30,0.171,0.153,0.251,0.237,0.236,0.133,0.083,west,2.6,No
2021/04/20,18:40,0.170,0.153,0.252,0.236,0.237,0.133,0.082,west-southwest,1.0,No
2021/04/20,18:50,0.172,0.152,0.251,0.238,0.234,0.133,0.083,west-northwest,0.6,No
2021/04/20,19:00,0.171,0.153,0.253,0.237,0.237,0.134,0.083,west-northwest,1.0,No
2021/04/20,19:10,0.172,0.152,0.249,0.238,0.235,0.133,0.083,west-southwest,1.6,No
2021/04/20,19:20,0.170,0.153,0.252,0.238,0.236,0.133,0.082,west,2.3,No
2021/04/20,19:30,0.172,0.154,0.250,0.237,0.234,0.133,0.083,west-southwest,2.0,No
2021/04/20,19:40,0.170,0.152,0.251,0.237,0.236,0.133,0.083,west-southwest,1.7,No
2021/04/20,19:50,0.171,0.154,0.251,0.237,0.235,0.133,0.083,northeast,1.3,No
2021/04/20,20:00,0.170,0.153,0.252,0.237,0.237,0.133,0.082,west-southwest,2.4,No
2021/04/20,20:10,0.171,0.153,0.252,0.236,0.234,0.133,0.082,northeast,0.7,No
2021/04/20,20:20,0.171,0.153,0.250,0.238,0.236,0.133,0.082,south-southwest,0.9,No
2021/04/20,20:30,0.170,0.153,0.251,0.237,0.234,0.133,0.083,west-southwest,3.7,No
2021/04/20,20:40,0.170,0.153,0.250,0.237,0.237,0.133,0.083,west-southwest,2.3,No
2021/04/20,20:50,0.171,0.152,0.251,0.237,0.234,0.133,0.082,south-southwest,0.8,No
2021/04/20,21:00,0.170,0.153,0.251,0.238,0.237,0.133,0.083,south-southwest,1.6,No
2021/04/20,21:10,0.172,0.151,0.252,0.237,0.233,0.133,0.082,southwest,1.9,No
2021/04/20,21:20,0.171,0.154,0.250,0.237,0.236,0.133,0.083,east-northeast,1.5,No
2021/04/20,21:30,0.171,0.153,0.250,0.237,0.236,0.133,0.082,east,1.1,No
2021/04/20,21:40,0.172,0.152,0.251,0.237,0.237,0.133,0.083,west-southwest,1.4,No
2021/04/20,21:50,0.170,0.153,0.251,0.238,0.234,0.133,0.083,-,CALM,No
2021/04/20,22:00,0.171,0.152,0.253,0.237,0.236,0.133,0.083,west,2.3,No
2021/04/20,22:10,0.171,0.152,0.252,0.238,0.235,0.133,0.082,west-northwest,1.7,No
2021/04/20,22:20,0.171,0.154,0.250,0.237,0.236,0.133,0.083,west,2.0,No
2021/04/20,22:30,0.170,0.153,0.252,0.238,0.236,0.134,0.083,-,CALM,No
2021/04/20,22:40,0.171,0.152,0.250,0.237,0.236,0.134,0.083,-,CALM,No
2021/04/20,22:50,0.170,0.152,0.251,0.239,0.236,0.133,0.083,east,0.8,No
2021/04/20,23:00,0.171,0.151,0.250,0.239,0.235,0.133,0.082,west-northwest,4.3,No
2021/04/20,23:10,0.171,0.153,0.250,0.237,0.236,0.133,0.083,west-northwest,2.3,No
2021/04/20,23:20,0.171,0.153,0.250,0.237,0.235,0.134,0.083,west-northwest,4.3,No
2021/04/20,23:30,0.171,0.152,0.251,0.237,0.238,0.134,0.082,west-northwest,4.5,No
2021/04/20,23:40,0.171,0.153,0.252,0.237,0.234,0.135,0.083,west,7.2,No
2021/04/20,23:50,0.172,0.153,0.250,0.238,0.236,0.135,0.082,west-northwest,7.7,No
